owner,sensor,date,latitude,longitude,relative_humidity,qcFlag 
DISL,ioos:station:DISL:BSCA:1,2017-03-01T00:00:00Z,30.3288,-87.8293,100.0,1111122 
DISL,ioos:station:DISL:BSCA:1,2017-03-01T00:30:00Z,30.3288,-87.8293,108.1,1111122 
DISL,ioos:station:DISL:BSCA:1,2017-03-01T01:00:00Z,30.3288,-87.8293,109.0,1111122 
DISL,ioos:station:DISL:BSCA:1,2017-03-01T01:30:00Z,30.3288,-87.8293,110.1,1111122 
DISL,ioos:station:DISL:BSCA:1,2017-03-01T02:00:00Z,30.3288,-87.8293,110.5,1111122 
DISL,ioos:station:DISL:BSCA:1,2017-03-01T02:30:00Z,30.3288,-87.8293,111.1,1111122 
DISL,ioos:station:DISL:BSCA:1,2017-03-01T03:00:00Z,30.3288,-87.8293,111.9,1111122 
DISL,ioos:station:DISL:BSCA:1,2017-03-01T03:30:00Z,30.3288,-87.8293,112.3,1111122 
DISL,ioos:station:DISL:BSCA:1,2017-03-01T04:00:00Z,30.3288,-87.8293,113.4,1111122 
DISL,ioos:station:DISL:BSCA:1,2017-03-01T04:30:00Z,30.3288,-87.8293,114.1,1111122 
DISL,ioos:station:DISL:BSCA:1,2017-03-01T05:00:00Z,30.3288,-87.8293,114.7,1111122 
DISL,ioos:station:DISL:BSCA:1,2017-03-01T05:30:00Z,30.3288,-87.8293,115.4,1111122 
DISL,ioos:station:DISL:BSCA:1,2017-03-01T06:00:00Z,30.3288,-87.8293,116.0,1111122 
DISL,ioos:station:DISL:BSCA:1,2017-03-01T06:30:00Z,30.3288,-87.8293,117.7,1111122 
DISL,ioos:station:DISL:BSCA:1,2017-03-01T07:00:00Z,30.3288,-87.8293,118.5,1111122 
DISL,ioos:station:DISL:BSCA:1,2017-03-01T07:30:00Z,30.3288,-87.8293,119.7,1111122 
DISL,ioos:station:DISL:BSCA:1,2017-03-01T08:00:00Z,30.3288,-87.8293,121.9,1111122 
DISL,ioos:station:DISL:BSCA:1,2017-03-01T08:30:00Z,30.3288,-87.8293,122.8,1111122 
DISL,ioos:station:DISL:BSCA:1,2017-03-01T09:00:00Z,30.3288,-87.8293,122.1,1111122 
DISL,ioos:station:DISL:BSCA:1,2017-03-01T09:30:00Z,30.3288,-87.8293,118.2,1111122 
DISL,ioos:station:DISL:BSCA:1,2017-03-01T10:00:00Z,30.3288,-87.8293,119.6,1111122 
DISL,ioos:station:DISL:BSCA:1,2017-03-01T10:30:00Z,30.3288,-87.8293,119.6,1111122 
DISL,ioos:station:DISL:BSCA:1,2017-03-01T11:00:00Z,30.3288,-87.8293,123.4,1111122 
DISL,ioos:station:DISL:BSCA:1,2017-03-01T11:30:00Z,30.3288,-87.8293,127.9,1111122 
DISL,ioos:station:DISL:BSCA:1,2017-03-01T12:00:00Z,30.3288,-87.8293,127.9,1111122 
DISL,ioos:station:DISL:BSCA:1,2017-03-01T12:30:00Z,30.3288,-87.8293,120.7,1111122 
DISL,ioos:station:DISL:BSCA:1,2017-03-01T13:00:00Z,30.3288,-87.8293,118.7,1111122 
DISL,ioos:station:DISL:BSCA:1,2017-03-01T13:30:00Z,30.3288,-87.8293,115.8,1111122 
DISL,ioos:station:DISL:BSCA:1,2017-03-01T14:00:00Z,30.3288,-87.8293,114.6,1111122 
DISL,ioos:station:DISL:BSCA:1,2017-03-01T14:30:00Z,30.3288,-87.8293,113.1,1111122 
DISL,ioos:station:DISL:BSCA:1,2017-03-01T15:00:00Z,30.3288,-87.8293,111.3,1111122 
DISL,ioos:station:DISL:BSCA:1,2017-03-01T15:30:00Z,30.3288,-87.8293,100.0,1111122 
DISL,ioos:station:DISL:BSCA:1,2017-03-01T16:00:00Z,30.3288,-87.8293,100.0,1111122 
DISL,ioos:station:DISL:BSCA:1,2017-03-01T16:30:00Z,30.3288,-87.8293,100.0,1111122 
DISL,ioos:station:DISL:BSCA:1,2017-03-01T17:00:00Z,30.3288,-87.8293,109.6,1111122 
DISL,ioos:station:DISL:BSCA:1,2017-03-01T17:30:00Z,30.3288,-87.8293,112.6,1111122 
DISL,ioos:station:DISL:BSCA:1,2017-03-01T18:00:00Z,30.3288,-87.8293,113.7,1111122 
DISL,ioos:station:DISL:BSCA:1,2017-03-01T18:30:00Z,30.3288,-87.8293,114.9,1111122 
DISL,ioos:station:DISL:BSCA:1,2017-03-01T19:00:00Z,30.3288,-87.8293,115.4,1111122 
DISL,ioos:station:DISL:BSCA:1,2017-03-01T19:30:00Z,30.3288,-87.8293,117.5,1111122 
DISL,ioos:station:DISL:BSCA:1,2017-03-01T20:00:00Z,30.3288,-87.8293,118.8,1111122 
DISL,ioos:station:DISL:BSCA:1,2017-03-01T20:30:00Z,30.3288,-87.8293,119.7,1111122 
DISL,ioos:station:DISL:BSCA:1,2017-03-01T21:00:00Z,30.3288,-87.8293,120.3,1111122 
DISL,ioos:station:DISL:BSCA:1,2017-03-01T21:30:00Z,30.3288,-87.8293,121.4,1111122 
DISL,ioos:station:DISL:BSCA:1,2017-03-01T22:00:00Z,30.3288,-87.8293,122.1,1111122 
DISL,ioos:station:DISL:BSCA:1,2017-03-01T22:30:00Z,30.3288,-87.8293,124.0,1111122 
DISL,ioos:station:DISL:BSCA:1,2017-03-01T23:00:00Z,30.3288,-87.8293,124.4,1111122 
DISL,ioos:station:DISL:BSCA:1,2017-03-01T23:30:00Z,30.3288,-87.8293,128.4,1111122 
DISL,ioos:station:DISL:BSCA:1,2017-03-02T00:00:00Z,30.3288,-87.8293,135.7,1111122 
DISL,ioos:station:DISL:BSCA:1,2017-03-02T00:30:00Z,30.3288,-87.8293,156.6,1111122 
DISL,ioos:station:DISL:BSCA:1,2017-03-02T01:00:00Z,30.3288,-87.8293,163.1,1111122 
DISL,ioos:station:DISL:BSCA:1,2017-03-02T01:30:00Z,30.3288,-87.8293,163.3,1111122 
DISL,ioos:station:DISL:BSCA:1,2017-03-02T02:00:00Z,30.3288,-87.8293,163.3,1111122 
DISL,ioos:station:DISL:BSCA:1,2017-03-02T02:30:00Z,30.3288,-87.8293,163.2,1111122 
DISL,ioos:station:DISL:BSCA:1,2017-03-02T03:00:00Z,30.3288,-87.8293,163.4,1111122 
DISL,ioos:station:DISL:BSCA:1,2017-03-02T03:30:00Z,30.3288,-87.8293,163.2,1111122 
DISL,ioos:station:DISL:BSCA:1,2017-03-02T04:00:00Z,30.3288,-87.8293,163.2,1111122 
DISL,ioos:station:DISL:BSCA:1,2017-03-02T04:30:00Z,30.3288,-87.8293,109.4,1111122 
DISL,ioos:station:DISL:BSCA:1,2017-03-02T05:00:00Z,30.3288,-87.8293,97.2,1111122 
DISL,ioos:station:DISL:BSCA:1,2017-03-02T05:30:00Z,30.3288,-87.8293,86.4,1111122 
DISL,ioos:station:DISL:BSCA:1,2017-03-02T06:00:00Z,30.3288,-87.8293,81.6,1111122 
DISL,ioos:station:DISL:BSCA:1,2017-03-02T06:30:00Z,30.3288,-87.8293,77.46,1111122 
DISL,ioos:station:DISL:BSCA:1,2017-03-02T07:00:00Z,30.3288,-87.8293,68.1,1111122 
DISL,ioos:station:DISL:BSCA:1,2017-03-02T07:30:00Z,30.3288,-87.8293,64.81,1111122 
DISL,ioos:station:DISL:BSCA:1,2017-03-02T08:00:00Z,30.3288,-87.8293,69.69,1111122 
DISL,ioos:station:DISL:BSCA:1,2017-03-02T08:30:00Z,30.3288,-87.8293,57.83,1111122 
DISL,ioos:station:DISL:BSCA:1,2017-03-02T09:00:00Z,30.3288,-87.8293,58.1,1111122 
DISL,ioos:station:DISL:BSCA:1,2017-03-02T09:30:00Z,30.3288,-87.8293,61.12,1111122 
DISL,ioos:station:DISL:BSCA:1,2017-03-02T10:00:00Z,30.3288,-87.8293,53.83,1111122 
DISL,ioos:station:DISL:BSCA:1,2017-03-02T10:30:00Z,30.3288,-87.8293,44.31,1111122 
DISL,ioos:station:DISL:BSCA:1,2017-03-02T11:00:00Z,30.3288,-87.8293,42.89,1111122 
DISL,ioos:station:DISL:BSCA:1,2017-03-02T11:30:00Z,30.3288,-87.8293,46.93,1111122 
DISL,ioos:station:DISL:BSCA:1,2017-03-02T12:00:00Z,30.3288,-87.8293,39.4,1111122 
DISL,ioos:station:DISL:BSCA:1,2017-03-02T12:30:00Z,30.3288,-87.8293,31.4,1111122 
DISL,ioos:station:DISL:BSCA:1,2017-03-02T13:00:00Z,30.3288,-87.8293,44.52,1111122 
DISL,ioos:station:DISL:BSCA:1,2017-03-02T13:30:00Z,30.3288,-87.8293,40.59,1111122 
DISL,ioos:station:DISL:BSCA:1,2017-03-02T14:00:00Z,30.3288,-87.8293,37.54,1111122 
DISL,ioos:station:DISL:BSCA:1,2017-03-02T14:30:00Z,30.3288,-87.8293,51.14,1111122 
DISL,ioos:station:DISL:BSCA:1,2017-03-02T15:00:00Z,30.3288,-87.8293,32.86,1111122 
DISL,ioos:station:DISL:BSCA:1,2017-03-02T15:30:00Z,30.3288,-87.8293,26.31,1111122 
DISL,ioos:station:DISL:BSCA:1,2017-03-02T16:00:00Z,30.3288,-87.8293,30.69,1111122 
DISL,ioos:station:DISL:BSCA:1,2017-03-02T16:30:00Z,30.3288,-87.8293,38.28,1111122 
DISL,ioos:station:DISL:BSCA:1,2017-03-02T17:00:00Z,30.3288,-87.8293,29.73,1111122 
DISL,ioos:station:DISL:BSCA:1,2017-03-02T17:30:00Z,30.3288,-87.8293,29.12,1111122 
DISL,ioos:station:DISL:BSCA:1,2017-03-02T18:00:00Z,30.3288,-87.8293,20.54,1111122 
DISL,ioos:station:DISL:BSCA:1,2017-03-02T18:30:00Z,30.3288,-87.8293,33.08,1111122 
DISL,ioos:station:DISL:BSCA:1,2017-03-02T19:00:00Z,30.3288,-87.8293,22.92,1111122 
DISL,ioos:station:DISL:BSCA:1,2017-03-02T19:30:00Z,30.3288,-87.8293,31.05,1111122 
DISL,ioos:station:DISL:BSCA:1,2017-03-02T20:00:00Z,30.3288,-87.8293,25.29,1111122 
DISL,ioos:station:DISL:BSCA:1,2017-03-02T20:30:00Z,30.3288,-87.8293,21.9,1111122 
DISL,ioos:station:DISL:BSCA:1,2017-03-02T21:00:00Z,30.3288,-87.8293,30.1,1111122 
DISL,ioos:station:DISL:BSCA:1,2017-03-02T21:30:00Z,30.3288,-87.8293,23.08,1111122 
DISL,ioos:station:DISL:BSCA:1,2017-03-02T22:00:00Z,30.3288,-87.8293,29.52,1111122 
DISL,ioos:station:DISL:BSCA:1,2017-03-02T22:30:00Z,30.3288,-87.8293,26.47,1111122 
DISL,ioos:station:DISL:BSCA:1,2017-03-02T23:00:00Z,30.3288,-87.8293,21.05,1111122 
DISL,ioos:station:DISL:BSCA:1,2017-03-02T23:30:00Z,30.3288,-87.8293,22.95,1111122 
DISL,ioos:station:DISL:BSCA:1,2017-03-03T00:00:00Z,30.3288,-87.8293,31.02,1111122 
DISL,ioos:station:DISL:BSCA:1,2017-03-03T00:30:00Z,30.3288,-87.8293,26.17,1111122 
DISL,ioos:station:DISL:BSCA:1,2017-03-03T01:00:00Z,30.3288,-87.8293,33.66,1111122 
DISL,ioos:station:DISL:BSCA:1,2017-03-03T01:30:00Z,30.3288,-87.8293,30.21,1111122 
DISL,ioos:station:DISL:BSCA:1,2017-03-03T02:00:00Z,30.3288,-87.8293,33.16,1111122 
DISL,ioos:station:DISL:BSCA:1,2017-03-03T02:30:00Z,30.3288,-87.8293,35.5,1111122 
DISL,ioos:station:DISL:BSCA:1,2017-03-03T03:00:00Z,30.3288,-87.8293,38.39,1111122 
DISL,ioos:station:DISL:BSCA:1,2017-03-03T03:30:00Z,30.3288,-87.8293,38.76,1111122 
DISL,ioos:station:DISL:BSCA:1,2017-03-03T04:00:00Z,30.3288,-87.8293,37.5,1111122 
DISL,ioos:station:DISL:BSCA:1,2017-03-03T04:30:00Z,30.3288,-87.8293,44.63,1111122 
DISL,ioos:station:DISL:BSCA:1,2017-03-03T05:00:00Z,30.3288,-87.8293,37.37,1111122 
DISL,ioos:station:DISL:BSCA:1,2017-03-03T05:30:00Z,30.3288,-87.8293,45.37,1111122 
DISL,ioos:station:DISL:BSCA:1,2017-03-03T06:00:00Z,30.3288,-87.8293,51.78,1111122 
DISL,ioos:station:DISL:BSCA:1,2017-03-03T06:30:00Z,30.3288,-87.8293,45.27,1111122 
DISL,ioos:station:DISL:BSCA:1,2017-03-03T07:00:00Z,30.3288,-87.8293,43.32,1111122 
DISL,ioos:station:DISL:BSCA:1,2017-03-03T07:30:00Z,30.3288,-87.8293,47.15,1111122 
DISL,ioos:station:DISL:BSCA:1,2017-03-03T08:00:00Z,30.3288,-87.8293,55.53,1111122 
DISL,ioos:station:DISL:BSCA:1,2017-03-03T08:30:00Z,30.3288,-87.8293,54.92,1111122 
DISL,ioos:station:DISL:BSCA:1,2017-03-03T09:00:00Z,30.3288,-87.8293,58.45,1111122 
DISL,ioos:station:DISL:BSCA:1,2017-03-03T09:30:00Z,30.3288,-87.8293,56.34,1111122 
DISL,ioos:station:DISL:BSCA:1,2017-03-03T10:00:00Z,30.3288,-87.8293,52.17,1111122 
DISL,ioos:station:DISL:BSCA:1,2017-03-03T10:30:00Z,30.3288,-87.8293,58.68,1111122 
DISL,ioos:station:DISL:BSCA:1,2017-03-03T11:00:00Z,30.3288,-87.8293,58.31,1111122 
DISL,ioos:station:DISL:BSCA:1,2017-03-03T11:30:00Z,30.3288,-87.8293,54.27,1111122 
DISL,ioos:station:DISL:BSCA:1,2017-03-03T12:00:00Z,30.3288,-87.8293,59.94,1111122 
DISL,ioos:station:DISL:BSCA:1,2017-03-03T12:30:00Z,30.3288,-87.8293,55.74,1111122 
DISL,ioos:station:DISL:BSCA:1,2017-03-03T13:00:00Z,30.3288,-87.8293,58.62,1111122 
DISL,ioos:station:DISL:BSCA:1,2017-03-03T13:30:00Z,30.3288,-87.8293,51.53,1111122 
DISL,ioos:station:DISL:BSCA:1,2017-03-03T14:00:00Z,30.3288,-87.8293,44.1,1111122 
DISL,ioos:station:DISL:BSCA:1,2017-03-03T14:30:00Z,30.3288,-87.8293,38.13,1111122 
DISL,ioos:station:DISL:BSCA:1,2017-03-03T15:00:00Z,30.3288,-87.8293,35.91,1111122 
DISL,ioos:station:DISL:BSCA:1,2017-03-03T15:30:00Z,30.3288,-87.8293,29.91,1111122 
DISL,ioos:station:DISL:BSCA:1,2017-03-03T16:00:00Z,30.3288,-87.8293,29.4,1111122 
DISL,ioos:station:DISL:BSCA:1,2017-03-03T16:30:00Z,30.3288,-87.8293,27.09,1111122 
DISL,ioos:station:DISL:BSCA:1,2017-03-03T17:00:00Z,30.3288,-87.8293,25.36,1111122 
DISL,ioos:station:DISL:BSCA:1,2017-03-03T17:30:00Z,30.3288,-87.8293,25.12,1111122 
DISL,ioos:station:DISL:BSCA:1,2017-03-03T18:00:00Z,30.3288,-87.8293,21.8,1111122 
DISL,ioos:station:DISL:BSCA:1,2017-03-03T18:30:00Z,30.3288,-87.8293,23.05,1111122 
DISL,ioos:station:DISL:BSCA:1,2017-03-03T19:00:00Z,30.3288,-87.8293,28.67,1111122 
DISL,ioos:station:DISL:BSCA:1,2017-03-03T19:30:00Z,30.3288,-87.8293,22.03,1111122 
DISL,ioos:station:DISL:BSCA:1,2017-03-03T20:00:00Z,30.3288,-87.8293,26.33,1111122 
DISL,ioos:station:DISL:BSCA:1,2017-03-03T20:30:00Z,30.3288,-87.8293,28.87,1111122 
DISL,ioos:station:DISL:BSCA:1,2017-03-03T21:00:00Z,30.3288,-87.8293,18.71,1111122 
DISL,ioos:station:DISL:BSCA:1,2017-03-03T21:30:00Z,30.3288,-87.8293,18.84,1111122 
DISL,ioos:station:DISL:BSCA:1,2017-03-03T22:00:00Z,30.3288,-87.8293,18.77,1111122 
DISL,ioos:station:DISL:BSCA:1,2017-03-03T22:30:00Z,30.3288,-87.8293,27.99,1111122 
DISL,ioos:station:DISL:BSCA:1,2017-03-03T23:00:00Z,30.3288,-87.8293,21.92,1111122 
DISL,ioos:station:DISL:BSCA:1,2017-03-03T23:30:00Z,30.3288,-87.8293,24.47,1111122 
DISL,ioos:station:DISL:BSCA:1,2017-03-04T00:00:00Z,30.3288,-87.8293,28.33,1111122 
DISL,ioos:station:DISL:BSCA:1,2017-03-04T00:30:00Z,30.3288,-87.8293,30.14,1111122 
DISL,ioos:station:DISL:BSCA:1,2017-03-04T01:00:00Z,30.3288,-87.8293,31.56,1111122 
DISL,ioos:station:DISL:BSCA:1,2017-03-04T01:30:00Z,30.3288,-87.8293,32.1,1111122 
DISL,ioos:station:DISL:BSCA:1,2017-03-04T02:00:00Z,30.3288,-87.8293,34.99,1111122 
DISL,ioos:station:DISL:BSCA:1,2017-03-04T02:30:00Z,30.3288,-87.8293,33.5,1111122 
DISL,ioos:station:DISL:BSCA:1,2017-03-04T03:00:00Z,30.3288,-87.8293,33.84,1111122 
DISL,ioos:station:DISL:BSCA:1,2017-03-04T03:30:00Z,30.3288,-87.8293,39.1,1111122 
DISL,ioos:station:DISL:BSCA:1,2017-03-04T04:00:00Z,30.3288,-87.8293,38.01,1111122 
DISL,ioos:station:DISL:BSCA:1,2017-03-04T04:30:00Z,30.3288,-87.8293,41.13,1111122 
DISL,ioos:station:DISL:BSCA:1,2017-03-04T05:00:00Z,30.3288,-87.8293,44.01,1111122 
DISL,ioos:station:DISL:BSCA:1,2017-03-04T05:30:00Z,30.3288,-87.8293,47.07,1111122 
DISL,ioos:station:DISL:BSCA:1,2017-03-04T06:00:00Z,30.3288,-87.8293,41.47,1111122 
DISL,ioos:station:DISL:BSCA:1,2017-03-04T06:30:00Z,30.3288,-87.8293,38.09,1111122 
DISL,ioos:station:DISL:BSCA:1,2017-03-04T07:00:00Z,30.3288,-87.8293,38.43,1111122 
DISL,ioos:station:DISL:BSCA:1,2017-03-04T07:30:00Z,30.3288,-87.8293,43.35,1111122 
DISL,ioos:station:DISL:BSCA:1,2017-03-04T08:00:00Z,30.3288,-87.8293,42.06,1111122 
DISL,ioos:station:DISL:BSCA:1,2017-03-04T08:30:00Z,30.3288,-87.8293,45.05,1111122 
DISL,ioos:station:DISL:BSCA:1,2017-03-04T09:00:00Z,30.3288,-87.8293,45.83,1111122 
DISL,ioos:station:DISL:BSCA:1,2017-03-04T09:30:00Z,30.3288,-87.8293,46.13,1111122 
DISL,ioos:station:DISL:BSCA:1,2017-03-04T10:00:00Z,30.3288,-87.8293,48.17,1111122 
DISL,ioos:station:DISL:BSCA:1,2017-03-04T10:30:00Z,30.3288,-87.8293,49.08,1111122 
DISL,ioos:station:DISL:BSCA:1,2017-03-04T11:00:00Z,30.3288,-87.8293,50.34,1111122 
DISL,ioos:station:DISL:BSCA:1,2017-03-04T11:30:00Z,30.3288,-87.8293,51.8,1111122 
DISL,ioos:station:DISL:BSCA:1,2017-03-04T12:00:00Z,30.3288,-87.8293,51.39,1111122 
DISL,ioos:station:DISL:BSCA:1,2017-03-04T12:30:00Z,30.3288,-87.8293,49.29,1111122 
DISL,ioos:station:DISL:BSCA:1,2017-03-04T13:00:00Z,30.3288,-87.8293,53.39,1111122 
DISL,ioos:station:DISL:BSCA:1,2017-03-04T13:30:00Z,30.3288,-87.8293,43.35,1111122 
DISL,ioos:station:DISL:BSCA:1,2017-03-04T14:00:00Z,30.3288,-87.8293,44.67,1111122 
DISL,ioos:station:DISL:BSCA:1,2017-03-04T14:30:00Z,30.3288,-87.8293,46.74,1111122 
DISL,ioos:station:DISL:BSCA:1,2017-03-04T15:00:00Z,30.3288,-87.8293,46.09,1111122 
DISL,ioos:station:DISL:BSCA:1,2017-03-04T15:30:00Z,30.3288,-87.8293,38.86,1111122 
DISL,ioos:station:DISL:BSCA:1,2017-03-04T16:00:00Z,30.3288,-87.8293,43.2,1111122 
DISL,ioos:station:DISL:BSCA:1,2017-03-04T16:30:00Z,30.3288,-87.8293,40.11,1111122 
DISL,ioos:station:DISL:BSCA:1,2017-03-04T17:00:00Z,30.3288,-87.8293,38.92,1111122 
DISL,ioos:station:DISL:BSCA:1,2017-03-04T17:30:00Z,30.3288,-87.8293,43.19,1111122 
DISL,ioos:station:DISL:BSCA:1,2017-03-04T18:00:00Z,30.3288,-87.8293,46.2,1111122 
DISL,ioos:station:DISL:BSCA:1,2017-03-04T18:30:00Z,30.3288,-87.8293,39.39,1111122 
DISL,ioos:station:DISL:BSCA:1,2017-03-04T19:00:00Z,30.3288,-87.8293,31.73,1111122 
DISL,ioos:station:DISL:BSCA:1,2017-03-04T19:30:00Z,30.3288,-87.8293,29.66,1111122 
DISL,ioos:station:DISL:BSCA:1,2017-03-04T20:00:00Z,30.3288,-87.8293,39.66,1111122 
DISL,ioos:station:DISL:BSCA:1,2017-03-04T20:30:00Z,30.3288,-87.8293,41.46,1111122 
DISL,ioos:station:DISL:BSCA:1,2017-03-04T21:00:00Z,30.3288,-87.8293,42.34,1111122 
DISL,ioos:station:DISL:BSCA:1,2017-03-04T21:30:00Z,30.3288,-87.8293,46.17,1111122 
DISL,ioos:station:DISL:BSCA:1,2017-03-04T22:00:00Z,30.3288,-87.8293,43.63,1111122 
DISL,ioos:station:DISL:BSCA:1,2017-03-04T22:30:00Z,30.3288,-87.8293,41.25,1111122 
DISL,ioos:station:DISL:BSCA:1,2017-03-04T23:00:00Z,30.3288,-87.8293,37.63,1111122 
DISL,ioos:station:DISL:BSCA:1,2017-03-04T23:30:00Z,30.3288,-87.8293,43.83,1111122 
DISL,ioos:station:DISL:BSCA:1,2017-03-05T00:00:00Z,30.3288,-87.8293,42.24,1111122 
DISL,ioos:station:DISL:BSCA:1,2017-03-05T00:30:00Z,30.3288,-87.8293,51.36,1111122 
DISL,ioos:station:DISL:BSCA:1,2017-03-05T01:00:00Z,30.3288,-87.8293,60.03,1111122 
DISL,ioos:station:DISL:BSCA:1,2017-03-05T01:30:00Z,30.3288,-87.8293,51.6,1111122 
DISL,ioos:station:DISL:BSCA:1,2017-03-05T02:00:00Z,30.3288,-87.8293,57.13,1111122 
DISL,ioos:station:DISL:BSCA:1,2017-03-05T02:30:00Z,30.3288,-87.8293,60.56,1111122 
DISL,ioos:station:DISL:BSCA:1,2017-03-05T03:00:00Z,30.3288,-87.8293,65.62,1111122 
DISL,ioos:station:DISL:BSCA:1,2017-03-05T03:30:00Z,30.3288,-87.8293,58.09,1111122 
DISL,ioos:station:DISL:BSCA:1,2017-03-05T04:00:00Z,30.3288,-87.8293,63.99,1111122 
DISL,ioos:station:DISL:BSCA:1,2017-03-05T04:30:00Z,30.3288,-87.8293,66.06,1111122 
DISL,ioos:station:DISL:BSCA:1,2017-03-05T05:00:00Z,30.3288,-87.8293,66.06,1111122 
DISL,ioos:station:DISL:BSCA:1,2017-03-05T05:30:00Z,30.3288,-87.8293,62.73,1111122 
DISL,ioos:station:DISL:BSCA:1,2017-03-05T06:00:00Z,30.3288,-87.8293,64.63,1111122 
DISL,ioos:station:DISL:BSCA:1,2017-03-05T06:30:00Z,30.3288,-87.8293,65.48,1111122 
DISL,ioos:station:DISL:BSCA:1,2017-03-05T07:00:00Z,30.3288,-87.8293,63.34,1111122 
DISL,ioos:station:DISL:BSCA:1,2017-03-05T07:30:00Z,30.3288,-87.8293,58.29,1111122 
DISL,ioos:station:DISL:BSCA:1,2017-03-05T08:00:00Z,30.3288,-87.8293,53.41,1111122 
DISL,ioos:station:DISL:BSCA:1,2017-03-05T08:30:00Z,30.3288,-87.8293,55.44,1111122 
DISL,ioos:station:DISL:BSCA:1,2017-03-05T09:00:00Z,30.3288,-87.8293,60.46,1111122 
DISL,ioos:station:DISL:BSCA:1,2017-03-05T09:30:00Z,30.3288,-87.8293,59.04,1111122 
DISL,ioos:station:DISL:BSCA:1,2017-03-05T10:00:00Z,30.3288,-87.8293,62.16,1111122 
DISL,ioos:station:DISL:BSCA:1,2017-03-05T10:30:00Z,30.3288,-87.8293,64.33,1111122 
DISL,ioos:station:DISL:BSCA:1,2017-03-05T11:00:00Z,30.3288,-87.8293,66.23,1111122 
DISL,ioos:station:DISL:BSCA:1,2017-03-05T11:30:00Z,30.3288,-87.8293,70.19,1111122 
DISL,ioos:station:DISL:BSCA:1,2017-03-05T12:00:00Z,30.3288,-87.8293,73.62,1111122 
DISL,ioos:station:DISL:BSCA:1,2017-03-05T12:30:00Z,30.3288,-87.8293,77.14,1111122 
DISL,ioos:station:DISL:BSCA:1,2017-03-05T13:00:00Z,30.3288,-87.8293,79.35,1111122 
DISL,ioos:station:DISL:BSCA:1,2017-03-05T13:30:00Z,30.3288,-87.8293,82.1,1111122 
DISL,ioos:station:DISL:BSCA:1,2017-03-05T14:00:00Z,30.3288,-87.8293,83.7,1111122 
DISL,ioos:station:DISL:BSCA:1,2017-03-05T14:30:00Z,30.3288,-87.8293,82.1,1111122 
DISL,ioos:station:DISL:BSCA:1,2017-03-05T15:00:00Z,30.3288,-87.8293,82.3,1111122 
DISL,ioos:station:DISL:BSCA:1,2017-03-05T15:30:00Z,30.3288,-87.8293,83.1,1111122 
DISL,ioos:station:DISL:BSCA:1,2017-03-05T16:00:00Z,30.3288,-87.8293,82.4,1111122 
DISL,ioos:station:DISL:BSCA:1,2017-03-05T16:30:00Z,30.3288,-87.8293,82.4,1111122 
DISL,ioos:station:DISL:BSCA:1,2017-03-05T17:00:00Z,30.3288,-87.8293,80.8,1111122 
DISL,ioos:station:DISL:BSCA:1,2017-03-05T17:30:00Z,30.3288,-87.8293,79.92,1111122 
DISL,ioos:station:DISL:BSCA:1,2017-03-05T18:00:00Z,30.3288,-87.8293,78.69,1111122 
DISL,ioos:station:DISL:BSCA:1,2017-03-05T18:30:00Z,30.3288,-87.8293,74.92,1111122 
DISL,ioos:station:DISL:BSCA:1,2017-03-05T19:00:00Z,30.3288,-87.8293,76.45,1111122 
DISL,ioos:station:DISL:BSCA:1,2017-03-05T19:30:00Z,30.3288,-87.8293,75.13,1111122 
DISL,ioos:station:DISL:BSCA:1,2017-03-05T20:00:00Z,30.3288,-87.8293,75.13,1111122 
DISL,ioos:station:DISL:BSCA:1,2017-03-05T20:30:00Z,30.3288,-87.8293,76.96,1111122 
DISL,ioos:station:DISL:BSCA:1,2017-03-05T21:00:00Z,30.3288,-87.8293,79.64,1111122 
DISL,ioos:station:DISL:BSCA:1,2017-03-05T21:30:00Z,30.3288,-87.8293,78.79,1111122 
DISL,ioos:station:DISL:BSCA:1,2017-03-05T22:00:00Z,30.3288,-87.8293,77.82,1111122 
DISL,ioos:station:DISL:BSCA:1,2017-03-05T22:30:00Z,30.3288,-87.8293,78.87,1111122 
DISL,ioos:station:DISL:BSCA:1,2017-03-05T23:00:00Z,30.3288,-87.8293,77.86,1111122 
DISL,ioos:station:DISL:BSCA:1,2017-03-05T23:30:00Z,30.3288,-87.8293,78.23,1111122 
DISL,ioos:station:DISL:BSCA:1,2017-03-06T00:00:00Z,30.3288,-87.8293,78.17,1111122 
DISL,ioos:station:DISL:BSCA:1,2017-03-06T00:30:00Z,30.3288,-87.8293,77.08,1111122 
DISL,ioos:station:DISL:BSCA:1,2017-03-06T01:00:00Z,30.3288,-87.8293,76.51,1111122 
DISL,ioos:station:DISL:BSCA:1,2017-03-06T01:30:00Z,30.3288,-87.8293,77.76,1111122 
DISL,ioos:station:DISL:BSCA:1,2017-03-06T02:00:00Z,30.3288,-87.8293,77.63,1111122 
DISL,ioos:station:DISL:BSCA:1,2017-03-06T02:30:00Z,30.3288,-87.8293,79.25,1111122 
DISL,ioos:station:DISL:BSCA:1,2017-03-06T03:00:00Z,30.3288,-87.8293,80.3,1111122 
DISL,ioos:station:DISL:BSCA:1,2017-03-06T03:30:00Z,30.3288,-87.8293,79.02,1111122 
DISL,ioos:station:DISL:BSCA:1,2017-03-06T04:00:00Z,30.3288,-87.8293,78.98,1111122 
DISL,ioos:station:DISL:BSCA:1,2017-03-06T04:30:00Z,30.3288,-87.8293,78.2,1111122 
DISL,ioos:station:DISL:BSCA:1,2017-03-06T05:00:00Z,30.3288,-87.8293,78.68,1111122 
DISL,ioos:station:DISL:BSCA:1,2017-03-06T05:30:00Z,30.3288,-87.8293,77.39,1111122 
DISL,ioos:station:DISL:BSCA:1,2017-03-06T06:00:00Z,30.3288,-87.8293,78.14,1111122 
DISL,ioos:station:DISL:BSCA:1,2017-03-06T06:30:00Z,30.3288,-87.8293,78.1,1111122 
DISL,ioos:station:DISL:BSCA:1,2017-03-06T07:00:00Z,30.3288,-87.8293,77.46,1111122 
DISL,ioos:station:DISL:BSCA:1,2017-03-06T07:30:00Z,30.3288,-87.8293,78.34,1111122 
DISL,ioos:station:DISL:BSCA:1,2017-03-06T08:00:00Z,30.3288,-87.8293,80.3,1111122 
DISL,ioos:station:DISL:BSCA:1,2017-03-06T08:30:00Z,30.3288,-87.8293,80.4,1111122 
DISL,ioos:station:DISL:BSCA:1,2017-03-06T09:00:00Z,30.3288,-87.8293,78.81,1111122 
DISL,ioos:station:DISL:BSCA:1,2017-03-06T09:30:00Z,30.3288,-87.8293,80.6,1111122 
DISL,ioos:station:DISL:BSCA:1,2017-03-06T10:00:00Z,30.3288,-87.8293,83.1,1111122 
DISL,ioos:station:DISL:BSCA:1,2017-03-06T10:30:00Z,30.3288,-87.8293,82.9,1111122 
DISL,ioos:station:DISL:BSCA:1,2017-03-06T11:00:00Z,30.3288,-87.8293,82.8,1111122 
DISL,ioos:station:DISL:BSCA:1,2017-03-06T11:30:00Z,30.3288,-87.8293,84.7,1111122 
DISL,ioos:station:DISL:BSCA:1,2017-03-06T12:00:00Z,30.3288,-87.8293,82.4,1111122 
DISL,ioos:station:DISL:BSCA:1,2017-03-06T12:30:00Z,30.3288,-87.8293,83.3,1111122 
DISL,ioos:station:DISL:BSCA:1,2017-03-06T13:00:00Z,30.3288,-87.8293,83.7,1111122 
DISL,ioos:station:DISL:BSCA:1,2017-03-06T13:30:00Z,30.3288,-87.8293,80.7,1111122 
DISL,ioos:station:DISL:BSCA:1,2017-03-06T14:00:00Z,30.3288,-87.8293,77.14,1111122 
DISL,ioos:station:DISL:BSCA:1,2017-03-06T14:30:00Z,30.3288,-87.8293,77.61,1111122 
DISL,ioos:station:DISL:BSCA:1,2017-03-06T15:00:00Z,30.3288,-87.8293,78.35,1111122 
DISL,ioos:station:DISL:BSCA:1,2017-03-06T15:30:00Z,30.3288,-87.8293,80.3,1111122 
DISL,ioos:station:DISL:BSCA:1,2017-03-06T16:00:00Z,30.3288,-87.8293,77.09,1111122 
DISL,ioos:station:DISL:BSCA:1,2017-03-06T16:30:00Z,30.3288,-87.8293,77.23,1111122 
DISL,ioos:station:DISL:BSCA:1,2017-03-06T17:00:00Z,30.3288,-87.8293,76.01,1111122 
DISL,ioos:station:DISL:BSCA:1,2017-03-06T17:30:00Z,30.3288,-87.8293,74.21,1111122 
DISL,ioos:station:DISL:BSCA:1,2017-03-06T18:00:00Z,30.3288,-87.8293,75.16,1111122 
DISL,ioos:station:DISL:BSCA:1,2017-03-06T18:30:00Z,30.3288,-87.8293,73.09,1111122 
DISL,ioos:station:DISL:BSCA:1,2017-03-06T19:00:00Z,30.3288,-87.8293,72.69,1111122 
DISL,ioos:station:DISL:BSCA:1,2017-03-06T19:30:00Z,30.3288,-87.8293,74.11,1111122 
DISL,ioos:station:DISL:BSCA:1,2017-03-06T20:00:00Z,30.3288,-87.8293,79.3,1111122 
DISL,ioos:station:DISL:BSCA:1,2017-03-06T20:30:00Z,30.3288,-87.8293,78.85,1111122 
DISL,ioos:station:DISL:BSCA:1,2017-03-06T21:00:00Z,30.3288,-87.8293,78.04,1111122 
DISL,ioos:station:DISL:BSCA:1,2017-03-06T21:30:00Z,30.3288,-87.8293,77.47,1111122 
DISL,ioos:station:DISL:BSCA:1,2017-03-06T22:00:00Z,30.3288,-87.8293,76.89,1111122 
DISL,ioos:station:DISL:BSCA:1,2017-03-06T22:30:00Z,30.3288,-87.8293,79.19,1111122 
DISL,ioos:station:DISL:BSCA:1,2017-03-06T23:00:00Z,30.3288,-87.8293,80.7,1111122 
DISL,ioos:station:DISL:BSCA:1,2017-03-06T23:30:00Z,30.3288,-87.8293,81.0,1111122 